DMSP 5D-2 F13 DEB, 40563

Orbit data source: Space-Track

DMSP 5D-2 F13 DEB, 40563 is space debris in SSO originally from a launch on Fri, 24 Mar 1995 UTC launched from the Air Force Western Test Range (AFWTR). Debris objects in space refer to the collection of defunct objects orbiting the Earth. Examples of debris include non-operational satellites, rocket bodies, and fragments generated from explosions, collisions, or faulty payload assembly.

Loading next visibility...
Identifier
40563, 1995-015DW
Orbit
SSO
Country
Flag of USUS
Related business
Manufacturer
Unknown
Mission
Spacecraft
Bus & Motor
Unknown
Mass
Unknown
Launch date (UTC)
1995-03-24 (31 years ago)
Launch vehicle
Unknown
Launch site
Air Force Western Test Range (AFWTR)
Object type
Payload
Rocket body
Debris
Shape & HBR
Unknown shape, 0.1 m
Radar Cross Section
Medium (>0.1 m² and <1 m²)

Expand to show TLE details & history
Last TLE update: 20 hours ago

TLE from 20 hours ago
0 DMSP 5D-2 F13 DEB
1 40563U 95015DW  26256.58991084  .00003338  00000-0  96054-3 0  9997
2 40563  98.6479 300.9025 0017873  72.3216 287.9924 14.45349177595778
Epoch: 2026-09-13T14:09Z
TLE epoch observation values (Epoch: 2026-09-13T14:09:28.296Z)
Latitude
-0.00006°
Longitude
95.95223°
Altitude
739.92 km
Speed
7.487 km/s
True Right ascension
20h 03m 36s
True Declination
0° 00' 00"
Sunlit
Object was in full shadow at epoch
Visualization orbit readout
Latitude
Unknown
Longitude
Unknown
Altitude
Unknown
Speed
Unknown
Apparent Right ascension
Unknown
Apparent Declination
Unknown
Sunlit
N/A
Visualization observer readout
Local Sidereal Time
02:46:28
Azimuth
Unknown
Elevation
Unknown
Doppler factor
Unknown
Orbital elements
Apogee altitude
750.72 km
Perigee altitude
725.282 km
Semi-major axis
7,116.138 km
Eccentricity
0.00179
Inclination
98.6479°
RAAN
300.9025°
Arg. of periapsis
72.3216°
True anomaly
287.79747°
Mean anomaly
287.9924°
Eccentric anomaly
287.89495°
Mean motion
3.61557 °/min
Orbital period
99.57 mins
BSTAR
0.00096054
Loading maneuver chart data...
Computing Atmospheric mass density...

Documentation

Showing up to 5 results
|